Regional Weather Roundup
Issued by NWS

Home | Current Version | Previous Version | Text Only | Print | Product List | Glossary Off
Versions: 1 2 3 4 5 6 7 8 9 10 11 12 13 14 15 16 17 18 19 20 21 22 23 24 25 26 27 28 29 30 31 32 33 34 35 36 37 38 39 40 41 42 43 44 45 46 47 48 49 50

000
ASUS43 KFSD 180402
RWRSD

WEATHER ROUNDUP FOR SOUTH DAKOTA
NATIONAL WEATHER SERVICE SIOUX FALLS SD
1100 PM CDT THU APR 17 2014

NOTE: "FAIR" INDICATES FEW OR NO CLOUDS BELOW 12,000 FEET WITH NO
SIGNIFICANT WEATHER AND/OR OBSTRUCTIONS TO VISIBILITY.


SDZ001>005-009-010-012>017-180500-
NORTHWEST AND NORTH CENTRAL SOUTH DAKOTA

CITY           SKY/WX    TMP DP  RH WIND       PRES   REMARKS
FAITH            N/A     38  26  62 SE22G31   30.02F
MOBRIDGE       CLEAR     34  22  61 SE15      30.11F WCI  24
$$

SDZ012>016-024>037-041>051-057-063-072>074-180500-
SOUTHWEST AND SOUTH CENTRAL SOUTH DAKOTA

CITY           SKY/WX    TMP DP  RH WIND       PRES   REMARKS
RAPID CTY ARPT CLEAR     41  33  73 SE9       29.97S
PIERRE         CLEAR     38  25  59 SE16      30.09F
CUSTER         PTCLDY    38  32  79 VRB3      29.98S
ELLSWORTH AFB  MOCLDY    42  35  76 S12       29.96F
PHILIP         PTCLDY    36  26  67 E13       30.03F
PINE RIDGE     PTCLDY    49  36  61 S18G26    29.98F
WINNER         FAIR      37  23  56 SE16      30.11F
$$

SDZ004>011-016>023-039-040-180500-
NORTHEAST SOUTH DAKOTA

CITY           SKY/WX    TMP DP  RH WIND       PRES   REMARKS
ABERDEEN       CLOUDY    36  21  54 SE9       30.22F
WATERTOWN      CLOUDY    32  16  51 SE7       30.25F WCI  26
SISSETON         N/A     30  22  72 SW6       30.27S WCI  24
$$

SDZ017-020-022-023-036>040-048>070-180500-
SOUTHEAST SOUTH DAKOTA

CITY           SKY/WX    TMP DP  RH WIND       PRES   REMARKS
SIOUX FALLS    CLOUDY    38  25  59 E8        30.26F
HURON          CLOUDY    39  28  64 SE10      30.21F
CHAMBERLAIN      N/A     39  27  62 SE20      30.14F
MITCHELL       PTCLDY    39  26  59 E13       30.22F
YANKTON        MOCLDY    39  25  56 E8        30.25S
$$

ABBREVIATIONS USED IN REMARKS
   TC - TEMPERATURE IN CELSIUS
  WCI - WIND CHILL INDEX
   HX - HEAT INDEX
  VSB - VISIBILITY




USA.gov is the U.S. government's official web portal to all federal, state and local government web resources and services.